Vlieland, Netherlands

7:00 AM CEST on April 27, 2018 (GMT +0200)
Vlieland

Weather History for EHVL - October, 2012

Change the Weather History Date:

Wednesday, October 17, 2012

  Actual Average Record
Temperature  
Mean Temperature 54 °F -  
Max Temperature 57 °F 50 °F 65 °F (2014)
Min Temperature 50 °F 45 °F 41 °F (2003)
Degree Days  
Heating Degree Days 12    
Growing Degree Days 4 (Base 50)    
Moisture  
Dew Point 49 °F    
Average Humidity 87    
Maximum Humidity 94    
Minimum Humidity 67    
Precipitation  
Precipitation 0.00 in - - ()
Sea Level Pressure  
Sea Level Pressure 29.61 in    
Wind  
Wind Speed 19 mph ()    
Max Wind Speed 32 mph    
Max Gust Speed -    
Visibility 6.1 miles    
Events Rain    
Averages and records for this station are not official NWS values.
T = Trace of Precipitation, MM = Missing Value Source: Averaged Metar Reports

Daily Weather History Graph

Daily Weather History Graph

Search for Another Location

Airport or City:

Astronomy

Oct. 17, 2012 Rise Set
Actual Time 8:11 AM CEST 6:39 PM CEST
Civil Twilight 7:35 AM CEST 7:14 PM CEST
Nautical Twilight 6:55 AM CEST 7:54 PM CEST
Astronomical Twilight 6:15 AM CEST 8:34 PM CEST
Moon 10:51 AM CEST (10/17) 7:34 PM CEST (10/17)
Length of Visible Light 11h 38m
Length of Day
10h 27m
Waxing Crescent, 5% of the Moon is Illuminated
Oct 17
Waxing Crescent
Oct 22
First Quarter
Oct 29
Full
Nov 7
Last Quarter
Nov 13
New

Hourly Weather History & Observations

Time (CEST) Temp. Dew Point Humidity Pressure Visibility Wind Dir Wind Speed Gust Speed Precip Events Conditions
12:25 AM 53.6 °F 44.6 °F 72% 29.68 in 6.2 mi West 21.9 mph - N/A   Partly Cloudy
12:55 AM 53.6 °F 44.6 °F 72% 29.68 in 6.2 mi West 21.9 mph - N/A   Partly Cloudy
1:25 AM 53.6 °F 44.6 °F 72% 29.68 in 6.2 mi West 19.6 mph - N/A   Unknown
1:55 AM 53.6 °F 42.8 °F 67% 29.68 in 6.2 mi West 24.2 mph - N/A   Partly Cloudy
2:25 AM 53.6 °F 42.8 °F 67% 29.71 in 6.2 mi WSW 20.7 mph - N/A   Partly Cloudy
2:55 AM 53.6 °F 42.8 °F 67% 29.68 in 6.2 mi WSW 18.4 mph - N/A   Unknown
3:13 AM 53.6 °F 42.8 °F 67% 29.71 in 4.3 mi WSW 16.1 mph - N/A   Haze
3:17 AM 53.6 °F 42.8 °F 67% 29.71 in 5.0 mi WSW 15.0 mph - N/A   Haze
3:25 AM 51.8 °F 42.8 °F 71% 29.71 in 6.2 mi WSW 15.0 mph - N/A   Scattered Clouds
3:38 AM 51.8 °F 42.8 °F 71% 29.68 in 6.2 mi WSW 12.7 mph - N/A   Partly Cloudy
3:55 AM 50.0 °F 42.8 °F 76% 29.68 in 6.2 mi SSW 10.4 mph - N/A   Partly Cloudy
4:25 AM 50.0 °F 44.6 °F 82% 29.68 in 6.2 mi South 13.8 mph - N/A   Scattered Clouds
4:55 AM 50.0 °F 46.4 °F 87% 29.68 in 6.2 mi South 15.0 mph - N/A   Overcast
5:25 AM 50.0 °F 46.4 °F 87% 29.65 in 6.2 mi South 16.1 mph - N/A   Overcast
5:55 AM 50.0 °F 46.4 °F 87% 29.65 in 6.2 mi South 18.4 mph - N/A   Mostly Cloudy
6:25 AM 50.0 °F 46.4 °F 87% 29.65 in 6.2 mi South 18.4 mph - N/A   Overcast
6:55 AM 50.0 °F 46.4 °F 87% 29.65 in 6.2 mi South 17.3 mph - N/A   Overcast
7:25 AM 50.0 °F 46.4 °F 87% 29.65 in 6.2 mi South 20.7 mph - N/A   Mostly Cloudy
7:55 AM 50.0 °F 46.4 °F 87% 29.65 in 6.2 mi South 20.7 mph - N/A   Overcast
8:25 AM 50.0 °F 46.4 °F 87% 29.62 in 1.1 mi SSE 21.9 mph - N/A   Mist
8:29 AM 50.0 °F 46.4 °F 87% 29.62 in 6.2 mi SSE 21.9 mph - N/A   Unknown
8:42 AM 50.0 °F 46.4 °F 87% 29.62 in 6.2 mi SSE 23.0 mph - N/A   Partly Cloudy
8:55 AM 50.0 °F 46.4 °F 87% 29.62 in 6.2 mi SSE 27.6 mph - N/A   Scattered Clouds
9:06 AM 50.0 °F 46.4 °F 87% 29.62 in 6.2 mi SSE 28.8 mph - N/A Rain Light Rain
9:25 AM 50.0 °F 46.4 °F 87% 29.59 in 6.2 mi SSE 28.8 mph - N/A   Mostly Cloudy
9:55 AM 50.0 °F 46.4 °F 87% 29.59 in 6.2 mi SSE 29.9 mph - N/A   Mostly Cloudy
10:25 AM 50.0 °F 46.4 °F 87% 29.59 in 6.2 mi SSE 29.9 mph - N/A Rain Light Drizzle
10:48 AM 50.0 °F 46.4 °F 87% 29.56 in 5.0 mi SSE 29.9 mph - N/A Rain Light Rain
10:55 AM 50.0 °F 46.4 °F 87% 29.56 in 6.2 mi SSE 28.8 mph - N/A Rain Light Rain
11:25 AM 50.0 °F 46.4 °F 87% 29.56 in 6.2 mi SSE 29.9 mph - N/A   Mostly Cloudy
11:45 AM 50.0 °F 48.2 °F 94% 29.56 in 6.2 mi SSE 29.9 mph - N/A   Mostly Cloudy
11:46 AM 50.0 °F 48.2 °F 94% 29.56 in 5.6 mi SSE 31.1 mph - N/A Rain Light Rain
11:55 AM 50.0 °F 48.2 °F 94% 29.56 in 6.2 mi South 29.9 mph - N/A Rain Light Rain
12:07 PM 50.0 °F 48.2 °F 94% 29.56 in 6.2 mi South 32.2 mph - N/A   Mostly Cloudy
12:14 PM 50.0 °F 48.2 °F 94% 29.56 in 6.2 mi South 31.1 mph - N/A   Overcast
12:25 PM 50.0 °F 48.2 °F 94% 29.56 in 6.2 mi South 26.5 mph - N/A   Mostly Cloudy
12:55 PM 51.8 °F 50.0 °F 94% 29.56 in 6.2 mi South 27.6 mph - N/A   Overcast
1:05 PM 51.8 °F 50.0 °F 94% 29.56 in 6.2 mi South 25.3 mph - N/A   Overcast
1:14 PM 51.8 °F 50.0 °F 94% 29.56 in 6.2 mi South 23.0 mph - N/A   Mostly Cloudy
1:18 PM 51.8 °F 50.0 °F 94% 29.56 in 6.2 mi South 21.9 mph - N/A   Mostly Cloudy
1:25 PM 51.8 °F 50.0 °F 94% 29.56 in 6.2 mi South 20.7 mph - N/A   Overcast
1:32 PM 51.8 °F 50.0 °F 94% 29.56 in 6.2 mi South 20.7 mph - N/A   Overcast
1:38 PM 51.8 °F 50.0 °F 94% 29.59 in 6.2 mi South 20.7 mph - N/A   Overcast
1:50 PM 51.8 °F 50.0 °F 94% 29.56 in 6.2 mi South 19.6 mph - N/A   Overcast
1:55 PM 53.6 °F 50.0 °F 88% 29.56 in 6.2 mi South 19.6 mph - N/A   Overcast
2:00 PM 53.6 °F 50.0 °F 88% 29.56 in 6.2 mi South 19.6 mph - N/A   Overcast
2:04 PM 53.6 °F 50.0 °F 88% 29.56 in 6.2 mi South 19.6 mph - N/A   Overcast
2:10 PM 53.6 °F 50.0 °F 88% 29.59 in 6.2 mi South 20.7 mph - N/A   Overcast
2:17 PM 53.6 °F 50.0 °F 88% 29.59 in 6.2 mi South 19.6 mph - N/A   Overcast
2:25 PM 53.6 °F 51.8 °F 94% 29.59 in 6.2 mi South 19.6 mph - N/A   Overcast
2:36 PM 53.6 °F 51.8 °F 94% 29.59 in 6.2 mi South 18.4 mph - N/A   Overcast
2:45 PM 53.6 °F 51.8 °F 94% 29.59 in 6.2 mi South 19.6 mph - N/A   Mostly Cloudy
2:50 PM 53.6 °F 51.8 °F 94% 29.59 in 6.2 mi South 19.6 mph - N/A   Mostly Cloudy
2:55 PM 55.4 °F 51.8 °F 88% 29.59 in 6.2 mi South 19.6 mph - N/A   Overcast
3:01 PM 55.4 °F 51.8 °F 88% 29.59 in 6.2 mi South 19.6 mph - N/A   Overcast
3:08 PM 55.4 °F 51.8 °F 88% 29.59 in 6.2 mi South 20.7 mph - N/A   Mostly Cloudy
3:12 PM 55.4 °F 51.8 °F 88% 29.59 in 6.2 mi South 20.7 mph - N/A   Mostly Cloudy
3:25 PM 55.4 °F 51.8 °F 88% 29.59 in 6.2 mi South 18.4 mph - N/A   Mostly Cloudy
3:34 PM 55.4 °F 51.8 °F 88% 29.59 in 6.2 mi South 16.1 mph - N/A   Mostly Cloudy
3:55 PM 55.4 °F 51.8 °F 88% 29.59 in 6.2 mi South 16.1 mph - N/A   Mostly Cloudy
4:08 PM 55.4 °F 51.8 °F 88% 29.59 in 6.2 mi South 16.1 mph - N/A   Mostly Cloudy
4:12 PM 55.4 °F 51.8 °F 88% 29.59 in 6.2 mi South 16.1 mph - N/A   Mostly Cloudy
4:25 PM 55.4 °F 51.8 °F 88% 29.59 in 6.2 mi South 17.3 mph - N/A   Overcast
4:55 PM 55.4 °F 51.8 °F 88% 29.59 in 6.2 mi South 21.9 mph - N/A   Overcast
5:19 PM 57.2 °F 53.6 °F 88% 29.59 in 6.2 mi SSW 25.3 mph - N/A   Overcast
5:25 PM 57.2 °F 53.6 °F 88% 29.59 in 6.2 mi SSW 24.2 mph - N/A   Overcast
5:26 PM 57.2 °F 53.6 °F 88% 29.59 in 6.2 mi SSW 24.2 mph - N/A   Mostly Cloudy
5:55 PM 57.2 °F 51.8 °F 82% 29.59 in 6.2 mi South 20.7 mph - N/A   Mostly Cloudy
6:25 PM 55.4 °F 51.8 °F 88% 29.59 in 6.2 mi South 15.0 mph - N/A   Mostly Cloudy
6:55 PM 53.6 °F 51.8 °F 94% 29.62 in 6.2 mi South 13.8 mph - N/A   Partly Cloudy
7:25 PM 53.6 °F 51.8 °F 94% 29.62 in 6.2 mi South 11.5 mph - N/A   Overcast
7:55 PM 53.6 °F 51.8 °F 94% 29.62 in 6.2 mi South 11.5 mph - N/A   Overcast
8:25 PM 53.6 °F 51.8 °F 94% 29.62 in 6.2 mi South 16.1 mph - N/A   Mostly Cloudy
8:55 PM 55.4 °F 51.8 °F 88% 29.62 in 6.2 mi South 15.0 mph - N/A   Overcast
9:25 PM 55.4 °F 51.8 °F 88% 29.65 in 6.2 mi South 12.7 mph - N/A   Mostly Cloudy
9:55 PM 53.6 °F 51.8 °F 94% 29.65 in 6.2 mi South 12.7 mph - N/A   Mostly Cloudy
10:08 PM 55.4 °F 51.8 °F 88% 29.65 in 6.2 mi South 11.5 mph - N/A   Mostly Cloudy
10:12 PM 55.4 °F 51.8 °F 88% 29.65 in 6.2 mi South 12.7 mph - N/A   Mostly Cloudy
10:21 PM 55.4 °F 51.8 °F 88% 29.65 in 6.2 mi South 11.5 mph - N/A   Mostly Cloudy
10:25 PM 55.4 °F 51.8 °F 88% 29.65 in 6.2 mi South 10.4 mph - N/A   Mostly Cloudy
10:55 PM 55.4 °F 51.8 °F 88% 29.65 in 6.2 mi South 10.4 mph - N/A   Mostly Cloudy
11:25 PM 53.6 °F 51.8 °F 94% 29.65 in 6.2 mi SSE 13.8 mph - N/A   Mostly Cloudy
11:30 PM 53.6 °F 51.8 °F 94% 29.65 in 6.2 mi SSE 13.8 mph - N/A   Overcast
11:37 PM 55.4 °F 51.8 °F 88% 29.65 in 6.2 mi South 13.8 mph - N/A   Mostly Cloudy
11:55 PM 53.6 °F 51.8 °F 94% 29.65 in 6.2 mi South 9.2 mph - N/A   Overcast